Regional Weather Roundup
Issued by NWS

Home | Current Version | Previous Version | Text Only | Print | Product List | Glossary Off
Versions: 1 2 3 4 5 6 7 8 9 10 11 12 13 14 15 16 17 18 19 20 21 22 23 24 25 26 27 28 29 30 31 32 33 34 35 36 37 38 39 40 41 42 43 44 45 46 47 48 49 50

000
ASUS43 KDTX 260401
RWRMI
MICHIGAN HOURLY REGIONAL WEATHER ROUNDUP
NATIONAL WEATHER SERVICE DETROIT/PONTIAC MI
1200 AM EDT SAT MAY 26 2018

NOTE: "FAIR" INDICATES FEW OR NO CLOUDS BELOW 12,000 FEET WITH NO
SIGNIFICANT WEATHER AND/OR OBSTRUCTION TO VISIBILITY.

MIZ047>049-052>055-059>063-066>070-074>076-081>083-260500-
SOUTHEAST LOWER MICHIGAN

CITY           SKY/WX    TMP DP  RH WIND       PRES   REMARKS
ADRIAN         FAIR      65  54  67 CALM      29.83R
ALMA           FAIR      66  63  89 SW8       29.79S
ANN ARBOR      FAIR      61  58  90 CALM      29.81S
BAD AXE        FAIR      69  60  72 SW5       29.78S
CARO           FAIR      64  60  88 CALM      29.78S
DETROIT CITY   FAIR      71  53  52 S3        29.80F
DETROIT        MOCLDY    71  58  63 CALM      29.81F
FLINT          FAIR      72  57  59 S7        29.80F
GROSSE ILE     FAIR      66  62  86 CALM      29.80S
HILLSDALE      FAIR      61  54  77 S3        29.83S
HOWELL         FAIR      72  53  50 S3        29.81S

CITY           SKY/WX    TMP DP  RH WIND       PRES   REMARKS
JACKSON        FAIR      65  57  75 SW5       29.82S
LAMBERTVILLE   FAIR      66  54  64 CALM      29.82S
LANSING        FAIR      70  62  76 CALM      29.81S
LAPEER         FAIR      69  55  61 SW5       29.80F
MASON          FAIR      70  59  68 CALM      29.81S
MONROE         FAIR      64  62  93 S6        29.81R
MT. CLEMENS    FAIR      69  55  60 SW5         N/A
PONTIAC        FAIR      71  57  61 CALM      29.80F
PORT HOPE        N/A     71  59  65 SW3       29.75R
PORT HURON     FAIR      68  52  56 CALM      29.80F
TRI CITIES     FAIR      73  60  63 SW6       29.78S
MIDLAND        FAIR      64  61  88 CALM      29.77S
TROY           FAIR      74  52  45 CALM      29.82F
SAGINAW HB     FAIR      70  59  68 SW6       29.78S
$$
MIZ043>046-050>051-056>058-064>065-071>073-077>080-260500-
SOUTHWEST LOWER MICHIGAN

CITY           SKY/WX    TMP DP  RH WIND       PRES   REMARKS
BATTLE CREEK   FAIR      71  56  58 S7        29.82R
BENTON HARBOR  MOCLDY    76  58  53 S6        29.78S
BIG RAPIDS     FAIR      69  59  71 CALM      29.78R
COLDWATER      FAIR      71  48  45 CALM      29.82S
HOLLAND        MOCLDY    69  63  81 S6        29.78S
GRAND RAPIDS   CLOUDY    71  64  78 S8        29.78F
IONIA          FAIR      67  62  82 S3        29.79S
KALAMAZOO      FAIR      75  54  47 S5        29.81R
LUDINGTON      FAIR      67  57  69 W7        29.76S
MARSHALL       FAIR      71  52  51 CALM      29.81S
MOUNT PLEASANT FAIR      71  62  74 CALM      29.77F
MUSKEGON       FAIR      72  59  63 E3        29.77S
SOUTH HAVEN    FAIR      76  58  52 S3        29.77F
$$
MIZ016>042-260500-
NORTHERN LOWER MICHIGAN

CITY           SKY/WX    TMP DP  RH WIND       PRES   REMARKS
ALPENA         FAIR      64  61  90 CALM      29.75S
BEAVER ISLAND  FAIR      60  53  77 SW17      29.74R
BELLAIRE       FAIR      66  62  87 CALM      29.73S
CADILLAC       FAIR      67  59  74 S3        29.78S
CHARLEVOIX     FAIR      64  59  85 CALM      29.74F
FRANKFORT      FAIR      75  58  57 S9        29.73F
GAYLORD        FAIR      69  59  70 SW7       29.76S
GRAYLING       FAIR      67  58  73 SW3       29.76S
HARBOR SPRINGS FAIR      64  62  94 E5        29.72F
HOUGHTON LAKE  FAIR      70  57  63 S7        29.78S
MANISTEE       FAIR      71  60  68 CALM      29.74S
OSCODA         FAIR      66  61  83 CALM      29.75R
PELLSTON       FAIR      64  61  90 S3        29.73S
ROGERS CITY    CLOUDY    65  60  82 SE5       29.75S
TRAVERSE CITY  FAIR      77  61  57 VRB3      29.71F
$$
MIZ007>008-015-260500-
EASTERN UPPER MICHIGAN

CITY           SKY/WX    TMP DP  RH WIND       PRES   REMARKS
KINROSS        MOCLDY    63  62  97 VRB5      29.72F
MACKINAC ISLAN FAIR      61  61 100 S6        29.72S
NEWBERRY       MOCLDY    60  59  97 S12       29.69F
S. S. MARIE    MOCLDY    65  62  90 CALM      29.72R
$$
MIZ004>006-011>014-085-260500-
CENTRAL UPPER MICHIGAN

CITY           SKY/WX    TMP DP  RH WIND       PRES   REMARKS
MANISTIQUE     FAIR      52  50  94 CALM      29.69F FOG
ESCANABA       TSTM      65  62  90 SW13      29.70F
MENOMINEE      FAIR      65  63  93 SW5       29.70F
$$
MIZ001>003-009>011-084-260500-
WESTERN UPPER MICHIGAN

CITY           SKY/WX    TMP DP  RH WIND       PRES   REMARKS
IRON MOUNTAIN  FAIR      64  62  93 SE6       29.70S
HOUGHTON       FAIR      62  58  86 CALM      29.63S
COPPER HARBOR    N/A     65  59  81 SW9       29.60F
IRONWOOD       FAIR      70  60  70 SW5       29.67S
$$

ABBREVIATIONS USED IN REMARKS
   TC - TEMPERATURE IN CELSIUS
  WCI - WIND CHILL INDEX
   HX - HEAT INDEX
  VSB - VISIBILITY





USA.gov is the U.S. government's official web portal to all federal, state and local government web resources and services.